Weather History for Clinton, IA

Change the Weather History Date:

Friday, March 29, 2013

  Actual Average Record
Temperature  
Mean Temperature 42 °F -  
Max Temperature 55 °F 53 °F 87 °F (1986)
Min Temperature 28 °F 34 °F 10 °F (1969)
Degree Days  
Heating Degree Days 24    
Moisture  
Dew Point 28 °F    
Average Humidity 62    
Maximum Humidity 86    
Minimum Humidity 38    
Precipitation  
Precipitation 0.00 in - - ()
Sea Level Pressure  
Sea Level Pressure 30.29 in    
Wind  
Wind Speed 5 mph (ENE)    
Max Wind Speed 8 mph    
Max Gust Speed -    
Visibility 10 miles    
Events      
Averages and records for this station are not official NWS values.
T = Trace of Precipitation, MM = Missing Value Source: NWS Daily Summary

Daily Weather History Graph

Daily Weather History Graph

Search for Another Location

Airport:

Trip Planner

Search our weather history database for the weather conditions in past years. The results will help you decide how hot, cold, wet, or windy it might be!

Date:

Astronomy

Mar. 29, 2013 Rise Set
Actual Time 6:48 AM CDT 7:23 PM CDT
Civil Twilight 6:20 AM CDT 7:51 PM CDT
Nautical Twilight 5:47 AM CDT 8:25 PM CDT
Astronomical Twilight 5:13 AM CDT 8:59 PM CDT
Moon 10:27 PM CDT (3/29) 7:55 AM CDT (3/29)
Length of Visible Light 13h 31m
Length of Day
12h 35m
Waning Gibbous, 93% of the Moon is Illuminated
Mar 29
Waning Gibbous
Apr 2
Last Quarter
Apr 10
New
Apr 18
First Quarter
Apr 25
Full

Hourly Weather History & Observations

Time (CDT) Temp. Windchill Dew Point Humidity Pressure Visibility Wind Dir Wind Speed Gust Speed Precip Events Conditions
12:15 AM 37.4 °F 33.8 °F 26.6 °F 65% 30.32 in 10.0 mi ESE 4.6 mph - N/A   Overcast
12:35 AM 35.6 °F 30.7 °F 26.6 °F 70% 30.32 in 10.0 mi ESE 5.8 mph - N/A   Mostly Cloudy
12:55 AM 35.6 °F 30.7 °F 26.6 °F 70% 30.32 in 10.0 mi East 5.8 mph - N/A   Mostly Cloudy
1:15 AM 33.8 °F 27.7 °F 26.6 °F 75% 30.32 in 10.0 mi East 6.9 mph - N/A   Mostly Cloudy
1:35 AM 33.8 °F 28.6 °F 26.6 °F 75% 30.32 in 10.0 mi ENE 5.8 mph - N/A   Mostly Cloudy
1:55 AM 33.8 °F 27.0 °F 26.6 °F 75% 30.32 in 10.0 mi ENE 8.1 mph - N/A   Mostly Cloudy
2:15 AM 33.8 °F 27.7 °F 26.6 °F 75% 30.32 in 10.0 mi ENE 6.9 mph - N/A   Mostly Cloudy
2:35 AM 33.8 °F 27.7 °F 26.6 °F 75% 30.32 in 10.0 mi NE 6.9 mph - N/A   Mostly Cloudy
2:55 AM 32.0 °F 26.4 °F 26.6 °F 80% 30.31 in 10.0 mi ENE 5.8 mph - N/A   Partly Cloudy
3:15 AM 30.2 °F 24.3 °F 24.8 °F 80% 30.31 in 10.0 mi East 5.8 mph - N/A   Clear
3:35 AM 30.2 °F 23.4 °F 24.8 °F 80% 30.31 in 10.0 mi ENE 6.9 mph - N/A   Clear
3:55 AM 30.2 °F 23.4 °F 24.8 °F 80% 30.31 in 10.0 mi ENE 6.9 mph - N/A   Clear
4:15 AM 30.2 °F 24.3 °F 24.8 °F 80% 30.30 in 10.0 mi East 5.8 mph - N/A   Clear
4:35 AM 30.2 °F 23.4 °F 24.8 °F 80% 30.31 in 10.0 mi ENE 6.9 mph - N/A   Clear
4:55 AM 30.2 °F 23.4 °F 24.8 °F 80% 30.30 in 10.0 mi ENE 6.9 mph - N/A   Clear
5:15 AM 30.2 °F 24.3 °F 24.8 °F 80% 30.30 in 10.0 mi ENE 5.8 mph - N/A   Clear
5:35 AM 28.4 °F 22.2 °F 23.0 °F 80% 30.30 in 10.0 mi ENE 5.8 mph - N/A   Clear
5:55 AM 28.4 °F 22.2 °F 24.8 °F 86% 30.31 in 10.0 mi ENE 5.8 mph - N/A   Clear
6:15 AM 28.4 °F 21.2 °F 24.8 °F 86% 30.31 in 10.0 mi ENE 6.9 mph - N/A   Clear
6:35 AM 28.4 °F 21.2 °F 23.0 °F 80% 30.31 in 10.0 mi ENE 6.9 mph - N/A   Clear
6:55 AM 28.4 °F 22.2 °F 24.8 °F 86% 30.31 in 10.0 mi ENE 5.8 mph - N/A   Clear
7:15 AM 28.4 °F 22.2 °F 24.8 °F 86% 30.32 in 10.0 mi ENE 5.8 mph - N/A   Clear
7:35 AM 30.2 °F 23.4 °F 24.8 °F 80% 30.32 in 10.0 mi ENE 6.9 mph - N/A   Clear
7:55 AM 32.0 °F 26.4 °F 26.6 °F 80% 30.33 in 10.0 mi ENE 5.8 mph - N/A   Clear
8:15 AM 33.8 °F 28.6 °F 26.6 °F 75% 30.33 in 10.0 mi ENE 5.8 mph - N/A   Clear
8:35 AM 35.6 °F 32.8 °F 28.4 °F 75% 30.34 in 10.0 mi ENE 3.5 mph - N/A   Clear
8:55 AM 37.4 °F 33.8 °F 28.4 °F 70% 30.34 in 10.0 mi ENE 4.6 mph - N/A   Clear
9:15 AM 39.2 °F 37.0 °F 28.4 °F 65% 30.34 in 10.0 mi East 3.5 mph - N/A   Clear
9:35 AM 41.0 °F 39.0 °F 30.2 °F 65% 30.34 in 10.0 mi ESE 3.5 mph - N/A   Clear
9:55 AM 42.8 °F 40.1 °F 30.2 °F 61% 30.34 in 10.0 mi East 4.6 mph - N/A   Clear
10:15 AM 44.6 °F 42.2 °F 30.2 °F 57% 30.34 in 10.0 mi East 4.6 mph - N/A   Clear
10:35 AM 46.4 °F 43.5 °F 30.2 °F 53% 30.34 in 10.0 mi SE 5.8 mph - N/A   Clear
10:55 AM 46.4 °F 43.5 °F 30.2 °F 53% 30.34 in 10.0 mi East 5.8 mph - N/A   Clear
11:15 AM 48.2 °F - 30.2 °F 50% 30.34 in 10.0 mi East 5.8 mph - N/A   Clear
11:55 AM 50.0 °F - 30.2 °F 47% 30.33 in 10.0 mi ENE 3.5 mph - N/A   Clear
12:15 PM 50.0 °F - 30.2 °F 47% 30.32 in 10.0 mi Calm Calm - N/A   Clear
12:35 PM 50.0 °F - 30.2 °F 47% 30.32 in 10.0 mi Calm Calm - N/A   Clear
12:55 PM 50.0 °F - 30.2 °F 47% 30.31 in 10.0 mi Calm Calm - N/A   Clear
1:15 PM 51.8 °F - 30.2 °F 44% 30.31 in 10.0 mi Calm Calm - N/A   Clear
1:35 PM 53.6 °F - 30.2 °F 41% 30.31 in 10.0 mi East 4.6 mph - N/A   Partly Cloudy
1:55 PM 51.8 °F - 30.2 °F 44% 30.30 in 7.0 mi North 4.6 mph - N/A   Scattered Clouds
2:15 PM 51.8 °F - 30.2 °F 44% 30.29 in 10.0 mi NW 3.5 mph - N/A   Scattered Clouds
2:35 PM 53.6 °F - 28.4 °F 38% 30.29 in 8.0 mi East 3.5 mph - N/A   Scattered Clouds
2:55 PM 51.8 °F - 30.2 °F 44% 30.28 in 3.0 mi Calm Calm - N/A   Clear
3:15 PM 53.6 °F - 28.4 °F 38% 30.27 in 3.0 mi Calm Calm - N/A   Clear
3:35 PM 53.6 °F - 28.4 °F 38% 30.27 in 5.0 mi SSE 3.5 mph - N/A   Clear
3:55 PM 53.6 °F - 30.2 °F 41% 30.26 in 10.0 mi Calm Calm - N/A   Clear
4:15 PM 53.6 °F - 30.2 °F 41% 30.26 in 10.0 mi Calm Calm - N/A   Clear
4:35 PM 55.4 °F - 32.0 °F 41% 30.25 in 10.0 mi North 4.6 mph - N/A   Clear
4:55 PM 53.6 °F - 28.4 °F 38% 30.25 in 10.0 mi Calm Calm - N/A   Clear
5:15 PM 53.6 °F - 28.4 °F 38% 30.24 in 10.0 mi North 3.5 mph - N/A   Clear
5:35 PM 53.6 °F - 28.4 °F 38% 30.24 in 10.0 mi NNW 3.5 mph - N/A   Clear
5:55 PM 53.6 °F - 28.4 °F 38% 30.24 in 10.0 mi North 4.6 mph - N/A   Clear
6:15 PM 53.6 °F - 28.4 °F 38% 30.24 in 10.0 mi NNW 3.5 mph - N/A   Clear
6:35 PM 51.8 °F - 30.2 °F 44% 30.24 in 10.0 mi NNE 3.5 mph - N/A   Clear
6:55 PM 50.0 °F - 30.2 °F 47% 30.24 in 10.0 mi NE 4.6 mph - N/A   Clear
7:15 PM 46.4 °F 43.5 °F 28.4 °F 50% 30.24 in 10.0 mi ENE 5.8 mph - N/A   Clear
7:35 PM 44.6 °F 41.4 °F 26.6 °F 49% 30.24 in 10.0 mi ENE 5.8 mph - N/A   Clear
7:55 PM 42.8 °F 38.6 °F 26.6 °F 53% 30.24 in 10.0 mi ENE 6.9 mph - N/A   Clear
8:15 PM 42.8 °F 39.3 °F 26.6 °F 53% 30.24 in 10.0 mi ENE 5.8 mph - N/A   Clear
8:35 PM 42.8 °F 38.6 °F 26.6 °F 53% 30.24 in 10.0 mi East 6.9 mph - N/A   Clear
8:55 PM 39.2 °F 34.2 °F 26.6 °F 61% 30.23 in 10.0 mi East 6.9 mph - N/A   Clear
9:15 PM 39.2 °F 35.0 °F 26.6 °F 61% 30.24 in 10.0 mi East 5.8 mph - N/A   Clear
9:35 PM 37.4 °F 32.1 °F 26.6 °F 65% 30.25 in 10.0 mi East 6.9 mph - N/A   Clear
9:55 PM 35.6 °F 29.2 °F 26.6 °F 70% 30.25 in 10.0 mi East 8.1 mph - N/A   Clear
10:15 PM 35.6 °F 29.2 °F 26.6 °F 70% 30.25 in 10.0 mi East 8.1 mph - N/A   Clear
10:35 PM 35.6 °F 29.2 °F 26.6 °F 70% 30.24 in 10.0 mi East 8.1 mph - N/A   Clear
10:55 PM 35.6 °F 29.2 °F 26.6 °F 70% 30.24 in 10.0 mi East 8.1 mph - N/A   Clear
11:15 PM 35.6 °F 29.2 °F 26.6 °F 70% 30.24 in 10.0 mi East 8.1 mph - N/A   Clear
11:35 PM 33.8 °F 27.7 °F 26.6 °F 75% 30.24 in 10.0 mi East 6.9 mph - N/A   Clear
11:55 PM 33.8 °F 27.7 °F 26.6 °F 75% 30.24 in 10.0 mi East 6.9 mph - N/A   Clear